Change the Weather History Date:

Friday, November 22, 2013

  Actual Average Record
Temperature  
Mean Temperature 40 °F -  
Max Temperature 46 °F 47 °F 55 °F (2014)
Min Temperature 33 °F 40 °F 33 °F (2013)
Degree Days  
Heating Degree Days 26    
Moisture  
Dew Point 33 °F    
Average Humidity 76    
Maximum Humidity 93    
Minimum Humidity 56    
Precipitation  
Precipitation 0.00 in - - ()
Sea Level Pressure  
Sea Level Pressure 30.21 in    
Wind  
Wind Speed 5 mph ()    
Max Wind Speed 9 mph    
Max Gust Speed -    
Visibility 6.2 miles    
Events      
Averages and records for this station are not official NWS values.
T = Trace of Precipitation, MM = Missing Value Source: Averaged Metar Reports

Daily Weather History Graph

Daily Weather History Graph

Search for Another Location

Airport or City:

Trip Planner

Search our weather history database for the weather conditions in past years. The results will help you decide how hot, cold, wet, or windy it might be!

Date:

Astronomy

Nov. 22, 2013 Rise Set
Actual Time 7:59 AM GMT 4:09 PM GMT
Civil Twilight 7:18 AM GMT 4:50 PM GMT
Nautical Twilight 6:34 AM GMT 5:34 PM GMT
Astronomical Twilight 5:52 AM GMT 6:16 PM GMT
Moon 8:39 PM GMT (11/22) 11:25 AM GMT (11/22)
Length of Visible Light 9h 31m
Length of Day
8h 09m
Waning Gibbous, 79% of the Moon is Illuminated
Nov 22
Waning Gibbous
Nov 25
Last Quarter
Dec 3
New
Dec 9
First Quarter
Dec 17
Full

Hourly Weather History & Observations

Time (GMT) Temp. Windchill Dew Point Humidity Pressure Visibility Wind Dir Wind Speed Gust Speed Precip Events Conditions
12:00 AM 40 °F - 35 °F 75% 30.11 in 31 mi ENE 6.9 mph - -   Mostly Cloudy
12:50 AM 41.0 °F - 35.6 °F 81% 30.09 in 6.2 mi Variable 2.3 mph - N/A   Mostly Cloudy
1:50 AM 41.0 °F - 33.8 °F 76% 30.12 in 6.2 mi Variable 2.3 mph - N/A   Mostly Cloudy
2:50 AM 39.2 °F 35.9 °F 33.8 °F 81% 30.12 in 6.2 mi NNE 4.6 mph - N/A   Scattered Clouds
3:50 AM 35.6 °F - 33.8 °F 93% 30.12 in 6.2 mi Variable 2.3 mph - N/A   Partly Cloudy
4:50 AM 35.6 °F 31.7 °F 32.0 °F 87% 30.15 in - NE 4.6 mph - N/A   Clear
5:20 AM 37.4 °F 33.8 °F 32.0 °F 81% 30.15 in - NNE 4.6 mph - N/A   Clear
5:50 AM 37.4 °F 34.9 °F 32.0 °F 81% 30.15 in - ENE 3.5 mph - N/A   Clear
6:00 AM 37 °F - 32 °F 77% 30.17 in 31 mi ENE 3.5 mph - -   Mostly Cloudy
6:20 AM 37.4 °F 34.9 °F 32.0 °F 81% 30.15 in - Variable 3.5 mph - N/A   Clear
6:50 AM 37.4 °F 34.9 °F 33.8 °F 87% 30.15 in 6.2 mi NE 3.5 mph - N/A   Mostly Cloudy
7:20 AM 39.2 °F 35.9 °F 32.0 °F 75% 30.18 in 6.2 mi East 4.6 mph - N/A   Partly Cloudy
7:50 AM 39.2 °F 35.9 °F 32.0 °F 75% 30.18 in 6.2 mi NE 4.6 mph - N/A   Partly Cloudy
8:20 AM 37.4 °F 33.8 °F 32.0 °F 81% 30.18 in 6.2 mi NNE 4.6 mph - N/A   Mostly Cloudy
8:50 AM 39.2 °F 35.9 °F 32.0 °F 75% 30.18 in 6.2 mi NNE 4.6 mph - N/A   Mostly Cloudy
9:00 AM 38 °F - 32 °F 73% 30.21 in 37 mi NNE 4.6 mph - -   Mostly Cloudy
9:20 AM 39.2 °F 35.9 °F 32.0 °F 75% 30.21 in 6.2 mi North 4.6 mph - N/A   Scattered Clouds
9:50 AM 39.2 °F - 33.8 °F 81% 30.21 in 6.2 mi North 2.3 mph - N/A   Scattered Clouds
10:20 AM 42.8 °F 40.1 °F 35.6 °F 76% 30.21 in 6.2 mi NNE 4.6 mph - N/A   Partly Cloudy
10:50 AM 42.8 °F 38.0 °F 33.8 °F 70% 30.21 in 6.2 mi NNE 8.1 mph - N/A   Partly Cloudy
11:20 AM 44.6 °F 40.7 °F 32.0 °F 61% 30.21 in 6.2 mi NNE 6.9 mph - N/A   Partly Cloudy
11:50 AM 44.6 °F 40.7 °F 33.8 °F 66% 30.21 in 6.2 mi NE 6.9 mph - N/A   Partly Cloudy
12:00 PM 45 °F - 35 °F 56% 30.22 in 37 mi NE 5.8 mph - -   Scattered Clouds
12:20 PM 44.6 °F 40.2 °F 33.8 °F 66% 30.21 in 6.2 mi NNE 8.1 mph - N/A   Partly Cloudy
12:50 PM 44.6 °F 42.2 °F 35.6 °F 71% 30.21 in 6.2 mi North 4.6 mph - N/A   Partly Cloudy
1:20 PM 44.6 °F 41.4 °F 32.0 °F 61% 30.21 in 6.2 mi North 5.8 mph - N/A   Partly Cloudy
1:50 PM 44.6 °F 40.7 °F 33.8 °F 66% 30.21 in 6.2 mi NNE 6.9 mph - N/A   Partly Cloudy
2:20 PM 44.6 °F 41.4 °F 33.8 °F 66% 30.21 in 6.2 mi North 5.8 mph - N/A   Partly Cloudy
2:50 PM 44.6 °F 40.7 °F 33.8 °F 66% 30.21 in 6.2 mi North 6.9 mph - N/A   Partly Cloudy
3:00 PM 44 °F - 34 °F 59% 30.23 in 31 mi North 6.9 mph - -   Scattered Clouds
3:20 PM 42.8 °F 39.3 °F 35.6 °F 76% 30.21 in 6.2 mi North 5.8 mph - N/A   Partly Cloudy
3:50 PM 41.0 °F 37.1 °F 33.8 °F 76% 30.24 in 6.2 mi North 5.8 mph - N/A   Partly Cloudy
4:20 PM 41.0 °F 35.8 °F 33.8 °F 76% 30.24 in 6.2 mi North 8.1 mph - N/A   Partly Cloudy
4:50 PM 39.2 °F 33.0 °F 33.8 °F 81% 30.24 in 6.2 mi NNE 9.2 mph - N/A   Partly Cloudy
5:20 PM 39.2 °F 33.0 °F 33.8 °F 81% 30.24 in 6.2 mi North 9.2 mph - N/A   Partly Cloudy
5:50 PM 39.2 °F 33.0 °F 33.8 °F 81% 30.24 in 6.2 mi North 9.2 mph - N/A   Partly Cloudy
6:00 PM 39 °F - 33 °F 71% 30.27 in 31 mi North 9.2 mph - -   Scattered Clouds
6:20 PM 37.4 °F 31.4 °F 32.0 °F 81% 30.24 in 6.2 mi NNE 8.1 mph - N/A   Partly Cloudy
6:50 PM 39.2 °F 34.2 °F 32.0 °F 75% 30.24 in 6.2 mi Variable 6.9 mph - N/A   Partly Cloudy
7:20 PM 37.4 °F 31.4 °F 32.0 °F 81% 30.27 in 6.2 mi North 8.1 mph - N/A   Partly Cloudy
7:50 PM 37.4 °F 32.1 °F 30.2 °F 75% 30.27 in 6.2 mi North 6.9 mph - N/A   Partly Cloudy
8:20 PM 37.4 °F 32.1 °F 30.2 °F 75% 30.27 in 6.2 mi North 6.9 mph - N/A   Partly Cloudy
8:50 PM 37.4 °F 32.1 °F 30.2 °F 75% 30.27 in 6.2 mi North 6.9 mph - N/A   Partly Cloudy
9:00 PM 37 °F - 31 °F 70% 30.27 in 31 mi North 6.9 mph - -   Scattered Clouds
9:50 PM 35.6 °F 31.7 °F 32.0 °F 87% 30.27 in 6.2 mi North 4.6 mph - N/A   Partly Cloudy
10:50 PM 33.8 °F 28.6 °F 30.2 °F 87% 30.27 in 6.2 mi NNW 5.8 mph - N/A   Partly Cloudy
11:50 PM 33.8 °F - 30.2 °F 87% 30.27 in 6.2 mi Variable 2.3 mph - N/A   Partly Cloudy